SL-12 DEB, 19753

Orbit data source: Space-Track

SL-12 DEB, 19753 is space debris in MEO originally from a launch on Tue, 10 Jan 1989 UTC launched from the Tyuratam Missile And Space Complex (TTMTR). Debris objects in space refer to the collection of defunct objects orbiting the Earth. Examples of debris include non-operational satellites, rocket bodies, and fragments generated from explosions, collisions, or faulty payload assembly.

Loading next visibility...
Identifier
19753, 1989-001E
Orbit
MEO
Country
Flag of CISCIS
Related business
Manufacturer
NPO PM
Mission
Spacecraft
Bus & Motor
ETALON ADAPTER, Unknown motor
Mass
Unknown
Launch date (UTC)
1989-01-10 (37 years ago)
Launch vehicle
Unknown
Launch site
Tyuratam Missile And Space Complex (TTMTR)
Object type
Payload
Rocket body
Debris
Shape & HBR
Unknown
Radar Cross Section
Medium (>0.1 m² and <1 m²)

Expand to show TLE details & history
Last TLE update: 5 days ago

TLE from 5 days ago
0 SL-12 DEB
1 19753U 89001E   25253.53070617  .00000032  00000-0  00000-0 0  9994
2 19753  64.7832  81.7422 0024568 212.3113 339.2833  2.13160831285729
Epoch: 2025-09-10T12:44Z
TLE epoch observation values (Epoch: 2025-09-10T12:44:13.013Z)
Latitude
-10.40425°
Longitude
85.83316°
Altitude
19,069.264 km
Speed
3.962 km/s
True Right ascension
17h 46m 46s
True Declination
-10° 23' 14"
Sunlit
Object was in daylight at epoch
Visualization orbit readout
Latitude
Unknown
Longitude
Unknown
Altitude
Unknown
Speed
Unknown
Apparent Right ascension
Unknown
Apparent Declination
Unknown
Sunlit
N/A
Visualization observer readout
Local Sidereal Time
04:06:05
Azimuth
Unknown
Elevation
Unknown
Doppler factor
Unknown
Orbital elements
Apogee altitude
19,187.472 km
Perigee altitude
19,062.161 km
Semi-major axis
25,502.953 km
Eccentricity
0.00246
Inclination
64.7832°
RAAN
81.7422°
Arg. of periapsis
212.3113°
True anomaly
339.18342°
Mean anomaly
339.2833°
Eccentric anomaly
339.23339°
Mean motion
0.53291 °/min
Orbital period
675.53 mins
BSTAR
0
Loading maneuver chart data...
Computing Atmospheric mass density...

Documentation

Showing up to 5 results
|